Theta_e
313 315 316 317 316 317 318 319 319 319 320 320 321 321 322 322 323 322 322 325 324 322 323 324 323 324 325 327 325 326 327 328 328 329 329 328 328 327 328 329 330 331 331 333 335 331 332 333 333 334 334 333 332 333 333 333 333 332 331 331 329 329 330 333 333 333 330 328 328 328 330 332 332 333 334 334 333 335 337 337 336 336 336 338 338
312 314 316 317 315 317 318 318 318 317 318 319 320 321 322 323 324 322 321 323 325 325 324 324 325 325 324 324 325 325 325 325 325 327 327 327 328 328 329 328 329 330 331 334 334 333 331 331 332 332 332 332 332 331 331 331 330 330 331 329 331 331 330 332 331 331 325 323 321 321 324 327 329 332 332 331 333 333 335 336 337 336 334 337 339
312 314 316 316 317 317 317 318 318 319 320 319 321 321 321 321 322 321 322 323 323 325 324 322 323 323 325 324 324 320 322 326 326 326 326 323 327 326 327 328 327 327 329 330 330 332 332 330 329 329 331 331 329 329 330 330 330 329 330 329 327 329 330 331 330 331 325 324 324 321 318 318 325 326 329 330 330 331 332 332 333 333 332 334 336
312 313 314 316 316 317 317 317 318 318 318 318 319 320 321 321 320 321 322 323 323 325 324 325 323 323 325 325 323 324 322 324 325 325 325 324 322 325 325 326 326 326 326 325 327 328 329 328 328 327 327 328 327 326 326 326 329 330 330 329 329 325 327 327 332 332 331 325 318 320 319 318 315 318 322 328 330 329 329 329 330 330 332 333 334
313 313 314 315 316 316 316 317 318 317 317 318 318 319 320 321 320 321 322 323 325 325 325 325 324 324 323 323 323 322 323 322 322 321 324 322 322 322 322 325 325 325 326 327 325 326 327 327 325 325 325 326 325 324 323 324 323 325 328 329 329 327 325 326 325 330 331 332 326 318 317 315 318 320 322 324 330 329 328 328 329 329 329 331 331
314 313 313 315 316 317 317 317 317 317 317 319 319 320 321 321 321 322 322 323 325 326 325 324 324 323 322 319 317 318 317 318 318 319 320 320 319 323 322 323 323 325 325 325 325 324 325 325 325 323 323 323 323 322 322 322 322 322 324 326 326 328 326 325 324 325 325 326 328 328 325 320 318 321 322 318 327 328 330 329 330 331 331 330 331
314 315 314 314 316 317 317 316 317 317 318 319 318 320 321 322 321 321 322 323 325 324 324 324 324 324 324 322 319 319 318 320 323 324 323 321 322 322 321 324 322 323 324 325 325 324 324 324 324 323 322 321 321 320 319 319 318 319 321 322 322 324 326 322 322 322 326 325 326 327 328 327 327 322 319 321 320 325 327 330 328 328 328 328 327
313 314 314 314 315 316 316 317 318 317 319 318 318 319 320 321 321 320 322 323 324 324 323 325 324 324 323 322 320 320 320 319 321 322 324 323 321 321 322 322 323 322 322 323 323 322 322 322 323 322 319 318 316 316 316 317 317 318 320 320 320 321 322 321 320 321 321 320 323 324 324 326 328 327 326 322 320 319 322 329 329 329 329 330 330
312 313 314 313 314 316 317 318 319 319 317 317 317 319 320 321 321 321 321 323 323 324 323 323 325 324 323 322 319 320 320 322 321 322 321 323 321 321 322 321 323 324 323 323 323 321 321 321 322 320 319 317 316 316 317 316 317 317 317 317 317 318 319 320 320 319 320 319 321 321 323 323 324 325 324 324 320 317 319 321 323 329 329 331 332
306 309 313 315 315 317 318 319 319 318 318 318 318 318 318 320 320 320 320 322 323 323 323 322 323 323 322 321 321 320 319 320 321 321 321 321 320 321 321 321 321 322 323 323 322 321 321 322 320 319 319 318 316 316 317 317 317 317 317 317 317 316 317 317 317 317 318 319 320 320 319 319 319 320 320 319 320 321 315 317 319 318 318 326 327
301 302 307 313 315 316 317 317 318 318 318 318 317 317 318 318 319 319 320 322 323 323 323 321 321 322 322 321 321 321 320 320 319 319 320 320 320 320 319 319 321 321 322 322 323 321 323 322 321 320 320 319 316 316 316 315 316 317 317 317 317 316 315 315 316 316 316 316 317 317 317 317 315 315 315 317 317 316 315 315 317 317 317 317 323
302 302 304 311 314 315 316 316 317 316 316 317 318 317 317 318 319 319 320 321 322 322 322 322 320 321 322 322 321 322 321 320 319 318 319 319 320 319 319 319 319 320 321 320 321 323 323 321 322 320 318 318 317 317 316 316 316 316 316 316 316 316 316 315 315 315 315 314 315 315 315 316 315 315 316 316 316 315 315 313 314 316 316 317 320
305 304 306 310 312 313 314 316 317 316 315 316 317 317 317 317 318 318 319 321 321 322 322 321 320 320 320 321 322 322 322 321 321 320 320 319 318 319 319 317 318 318 318 319 321 322 322 321 320 318 318 318 318 316 316 316 315 314 314 314 314 314 314 315 313 315 315 314 313 315 314 313 313 315 316 315 316 317 316 312 314 315 313 314 317
305 306 308 310 312 314 315 316 315 316 316 316 317 317 317 317 317 318 319 320 321 321 321 321 320 321 321 320 321 321 321 322 321 320 320 320 319 319 319 318 318 319 319 319 321 322 321 321 321 320 318 318 318 318 317 316 315 312 313 312 313 314 314 314 313 313 314 315 315 313 312 312 313 314 315 315 315 315 313 313 312 313 315 312 315
306 307 308 311 313 314 315 315 315 315 316 316 317 316 316 316 316 317 318 319 320 320 321 321 320 320 320 320 321 321 321 320 320 321 321 320 320 320 321 321 319 321 320 323 322 323 322 322 321 319 318 318 318 318 317 317 315 313 313 314 314 313 313 312 311 311 310 311 312 311 312 312 312 312 313 313 314 315 315 314 313 309 310 312 312
306 308 309 311 313 314 315 315 315 315 316 316 316 317 316 316 316 317 317 319 319 320 320 321 321 320 320 319 319 320 320 321 320 319 320 321 321 320 320 321 321 322 323 323 323 322 321 321 320 319 318 317 318 317 316 314 314 313 312 313 312 313 312 312 311 311 311 311 311 311 310 310 312 312 312 312 312 314 315 315 314 312 307 305 310
304 307 308 311 312 314 315 315 316 316 315 316 316 317 316 316 315 315 316 317 319 320 320 320 321 320 319 319 319 319 320 320 320 320 319 320 321 321 320 320 322 321 321 323 322 322 321 321 319 318 318 318 317 316 315 315 315 313 312 312 312 313 312 311 311 311 311 311 310 310 309 310 310 312 312 312 312 313 313 314 314 312 311 307 305
303 304 308 310 312 313 314 316 316 316 316 316 316 317 317 317 316 315 316 316 317 318 319 320 319 319 319 319 319 319 319 320 321 321 320 318 318 319 320 319 319 319 321 321 322 320 321 320 319 317 317 317 317 316 315 314 314 312 312 311 312 313 312 312 312 311 311 311 310 310 309 309 310 311 310 312 312 312 311 311 311 313 313 309 308
302 303 304 306 309 311 313 314 315 316 316 317 317 317 317 318 317 317 316 317 318 319 319 319 320 319 319 319 319 319 319 320 321 321 321 319 318 318 318 319 320 319 319 320 320 319 319 319 318 316 316 316 316 316 315 314 313 312 312 310 312 312 310 310 311 311 311 310 309 309 309 308 309 309 310 310 311 311 311 310 310 312 312 312 310
301 302 303 304 306 309 311 313 313 315 316 317 317 317 317 318 318 317 318 318 318 318 319 319 319 319 319 319 319 318 318 319 320 320 320 319 319 319 319 319 319 318 319 320 319 318 318 317 316 315 315 315 314 315 315 314 313 312 311 310 311 311 309 309 309 310 308 309 308 306 306 306 306 306 306 307 307 309 311 310 311 311 311 312 311
301 302 302 304 305 306 308 311 313 314 315 316 317 318 318 318 317 318 318 318 319 319 320 319 320 319 319 319 319 319 319 319 319 320 320 320 321 320 319 319 319 318 319 319 318 318 317 316 315 313 313 314 314 314 314 313 312 311 311 311 310 309 307 308 308 309 308 308 306 304 304 304 306 304 304 304 305 307 308 309 310 310 309 311 310
301 302 303 303 304 305 305 306 307 308 311 314 316 317 318 318 318 318 318 318 319 320 320 320 321 321 320 320 320 320 320 319 319 319 319 319 320 319 320 318 318 318 318 318 317 319 317 316 314 312 312 312 313 313 313 312 311 311 311 311 310 309 307 307 308 306 307 306 306 304 303 304 304 303 304 302 302 303 305 305 306 308 307 309 311
301 302 302 303 304 304 304 305 305 305 306 308 310 313 316 316 317 317 317 318 319 320 321 322 322 321 320 321 321 320 320 320 319 319 319 318 319 319 319 318 317 318 318 318 318 318 317 315 314 313 312 313 312 312 313 312 311 310 308 310 310 308 307 307 306 305 304 304 304 304 303 304 305 304 304 304 304 304 304 304 306 307 307 308 308
302 303 303 304 304 305 304 304 304 304 305 306 307 308 310 313 317 318 318 319 319 319 320 321 321 322 322 322 321 321 321 320 319 319 320 320 319 319 318 317 317 318 316 317 318 317 316 315 314 313 312 313 313 313 312 311 310 309 308 307 308 308 307 306 304 304 303 304 303 303 303 303 303 302 303 303 303 304 303 303 304 305 306 306 308
301 302 303 304 304 303 303 303 303 304 304 306 305 306 307 308 310 311 313 317 320 321 320 319 319 320 321 322 322 321 320 320 319 319 320 320 320 319 318 317 317 317 316 317 316 317 316 314 314 312 312 312 312 312 311 311 310 310 308 308 307 306 305 304 304 304 302 303 302 302 302 302 303 302 302 302 302 302 302 303 303 303 303 305 306
300 302 303 302 303 303 303 304 303 304 304 304 305 305 306 307 308 310 310 312 313 319 321 321 320 320 320 321 321 321 320 320 320 320 320 320 319 318 318 317 317 316 316 316 316 315 315 314 313 312 312 312 312 312 311 309 308 308 308 307 306 305 304 303 303 303 302 303 303 302 302 302 302 301 301 301 302 302 301 302 301 302 302 303 304
299 301 302 303 303 303 303 303 304 304 304 304 304 304 305 306 307 307 308 309 311 313 316 319 320 320 320 320 320 320 321 320 320 320 321 320 319 318 317 316 315 314 314 316 316 315 315 314 313 313 313 312 312 311 310 309 307 307 305 304 304 304 303 303 303 302 302 302 302 301 302 302 301 301 301 301 301 302 302 302 302 302 302 303 303
300 301 301 301 302 302 303 303 303 303 303 303 304 304 304 305 305 306 308 309 310 311 311 313 316 319 320 321 321 321 320 320 320 320 320 319 319 318 316 314 313 311 310 311 312 314 315 314 314 313 313 313 310 308 308 307 306 305 304 303 303 303 302 302 302 302 302 301 301 301 301 301 301 301 301 302 302 301 302 301 302 302 303 302 301
298 299 300 300 301 302 302 303 303 303 303 303 303 303 304 305 306 306 307 307 308 309 310 310 312 314 316 318 321 321 322 321 320 320 319 319 318 317 315 314 314 314 312 311 311 313 312 312 312 312 311 310 308 307 306 305 304 303 303 302 301 299 300 300 300 300 301 301 301 301 301 301 302 300 299 299 299 299 299 299 301 302 301 301 300
297 298 298 299 300 301 302 302 303 302 302 301 302 303 303 303 304 305 306 307 308 309 309 310 310 312 313 314 316 319 319 320 320 319 319 318 317 316 315 313 312 312 312 312 312 312 311 309 308 307 307 307 305 304 300 296 298 300 299 298 299 299 298 298 298 298 299 299 300 300 301 299 298 298 297 296 295 295 297 298 299 300 300 300 299
297 298 299 299 300 301 301 302 302 302 302 302 302 303 303 304 304 305 305 306 307 308 308 309 309 311 312 313 314 315 317 318 319 320 319 317 315 314 313 312 312 312 312 312 311 310 309 309 306 305 304 303 301 299 293 292 292 294 298 299 297 297 297 297 297 297 297 298 299 299 299 299 299 298 298 295 294 294 294 294 294 296 297 298 298
297 298 299 299 299 300 301 301 302 302 302 302 302 302 302 303 304 304 305 306 307 307 307 308 309 310 310 311 312 313 315 316 317 318 318 316 314 313 311 311 312 312 312 312 311 310 308 306 304 303 302 301 299 295 291 292 292 292 294 297 298 297 297 297 297 297 297 297 297 298 298 299 299 299 298 298 296 294 293 292 292 292 292 292 293
297 298 298 299 299 300 301 302 302 302 301 301 302 302 302 303 303 304 305 306 306 307 307 308 308 309 309 310 311 312 313 314 315 316 317 315 313 312 311 311 311 312 311 309 308 306 305 304 303 301 300 299 297 292 292 291 291 291 290 294 296 297 296 296 296 296 296 297 297 297 297 298 298 296 297 298 298 298 295 293 293 293 293 292 291
299 299 299 300 300 301 302 302 302 303 303 303 303 302 303 304 304 305 305 305 305 306 307 307 308 308 309 309 310 310 311 313 314 315 315 314 312 312 312 312 312 310 308 305 302 301 301 301 301 301 299 297 296 293 291 291 291 290 289 292 297 296 296 296 296 296 296 296 296 296 295 296 297 297 297 297 297 297 297 297 297 297 297 297 293
299 300 300 301 301 301 302 303 302 302 303 303 302 303 304 303 304 304 305 305 306 306 306 307 307 308 308 309 309 309 310 311 313 313 313 314 312 312 311 310 309 308 304 302 300 299 300 299 298 298 297 296 295 291 290 290 290 290 289 291 297 296 296 296 296 296 296 296 296 296 296 295 296 296 296 295 295 295 295 295 295 295 296 297 297
298 299 300 301 301 301 301 301 302 301 301 301 302 303 303 303 304 304 305 305 305 305 305 306 306 307 307 308 308 309 309 310 311 311 312 312 312 311 309 308 306 304 302 300 300 299 298 298 297 297 296 295 296 290 290 290 290 289 289 296 296 295 295 295 295 295 295 296 296 296 295 295 295 295 294 290 292 294 293 293 293 294 294 295 296
300 300 300 302 301 301 302 302 302 301 301 301 302 302 302 303 303 304 304 304 305 305 305 306 306 306 307 307 307 308 308 309 310 310 310 311 310 308 307 305 303 301 299 298 298 298 297 295 295 296 296 295 295 292 289 290 290 288 292 296 295 294 294 294 294 295 295 295 295 295 295 294 294 294 292 289 290 290 292 291 291 291 292 293 293
298 300 300 301 302 302 301 301 301 301 302 302 302 302 302 302 303 303 304 304 304 304 305 305 305 306 307 307 307 307 307 308 309 309 310 311 310 306 304 303 301 298 297 297 297 297 296 296 295 295 296 296 296 293 289 290 289 289 291 295 294 293 294 294 294 294 295 295 295 293 294 294 294 294 291 289 289 291 291 290 290 290 290 290 291
299 299 299 300 301 301 300 300 301 300 301 302 302 302 301 301 303 304 304 304 304 305 305 305 306 307 307 307 307 307 308 308 308 309 310 306 303 301 299 299 298 298 296 296 296 294 294 295 296 297 296 296 296 294 290 289 289 289 292 295 294 293 293 293 293 293 294 294 295 294 293 293 293 292 289 289 288 290 290 290 289 289 288 288 290
299 300 301 300 300 300 300 300 300 301 302 301 302 301 301 301 302 304 303 303 304 305 306 306 306 307 307 307 307 307 308 308 308 308 304 301 299 298 297 296 295 295 294 294 294 294 294 294 295 296 296 297 296 296 295 289 290 290 290 293 294 292 292 292 292 292 292 293 294 294 294 290 289 288 288 288 288 288 289 290 289 288 287 287 290
297 298 297 298 299 299 299 299 300 300 301 301 301 300 300 301 302 303 303 304 305 306 306 306 306 306 306 306 306 307 307 308 307 302 300 299 298 297 296 295 294 294 294 293 292 293 293 293 293 294 295 296 297 297 296 289 289 289 289 290 294 293 293 292 292 292 292 292 292 292 293 291 289 288 288 288 288 288 288 289 289 288 289 290 290
298 297 297 298 298 299 299 299 300 301 301 301 301 300 300 301 302 302 304 306 306 306 306 305 305 304 304 305 306 307 308 305 301 299 298 297 297 298 298 296 296 296 296 295 294 295 295 294 293 293 294 296 296 293 297 292 289 289 289 289 292 293 293 292 291 291 291 291 291 291 292 291 288 288 288 288 288 288 288 289 288 288 287 287 289
297 297 298 297 297 298 298 299 300 301 301 301 301 300 300 301 301 303 305 306 305 304 303 303 302 303 304 305 305 304 301 300 299 298 297 296 296 296 296 296 296 296 295 295 296 296 295 294 294 295 296 297 298 296 292 294 291 289 289 288 288 289 289 291 291 290 290 290 291 291 291 290 288 287 287 287 287 287 288 288 287 287 287 287 288
297 297 297 297 297 298 298 299 300 301 301 301 301 300 300 300 301 304 304 303 302 302 302 302 302 303 304 303 302 300 299 298 297 296 295 294 294 294 293 294 295 294 294 293 293 294 294 294 293 293 296 296 297 296 293 289 291 288 288 288 288 287 288 291 291 290 291 290 290 291 290 288 287 287 287 287 287 287 288 287 287 287 287 287 288
296 296 298 297 297 298 298 299 300 301 301 301 301 300 300 300 302 303 301 300 301 301 301 301 302 302 300 299 298 297 296 296 296 295 294 293 293 294 294 295 295 293 293 292 291 292 293 293 293 293 293 295 296 295 296 292 288 288 287 287 287 287 287 287 290 291 291 290 289 288 287 287 287 287 287 287 287 288 287 287 287 287 288 288 288
297 297 297 297 298 298 298 298 300 301 302 302 302 302 300 301 302 300 300 300 300 300 300 300 300 298 296 296 295 295 295 295 295 295 294 294 294 294 294 294 295 294 293 293 293 293 293 293 292 293 292 292 293 294 294 294 292 292 290 289 288 288 289 289 289 289 288 288 287 287 287 287 287 288 289 289 289 289 288 287 287 288 289 288 288
296 297 297 298 298 298 298 299 299 301 302 302 302 302 301 301 300 300 300 300 300 299 298 297 297 297 296 295 294 294 294 295 295 295 296 295 295 293 293 294 295 294 294 294 293 292 292 291 291 291 292 292 292 292 293 294 294 293 293 293 292 292 290 289 289 290 289 289 289 288 288 287 287 287 287 287 287 288 289 289 290 290 290 290 290
298 298 297 297 298 298 298 299 299 301 302 302 301 301 300 300 299 299 299 298 297 296 296 296 295 295 295 295 294 289 292 294 294 295 296 295 297 296 295 293 294 293 293 290 290 291 290 290 290 291 291 291 291 292 292 292 292 291 292 292 291 291 290 289 288 289 289 289 289 288 288 289 289 289 289 289 289 289 289 288 289 290 290 290 290
297 298 298 298 298 298 299 299 299 301 302 301 301 300 299 298 298 298 297 296 295 294 295 295 295 295 294 293 294 294 295 295 294 294 295 296 296 295 294 292 293 295 293 291 290 291 291 291 291 290 289 288 290 290 291 288 290 287 288 289 289 289 289 289 288 287 288 288 288 288 287 287 287 286 286 287 287 288 287 288 289 289 290 290 290
297 298 298 298 298 299 299 299 300 301 301 301 299 298 297 297 297 297 297 296 295 295 295 294 295 294 294 293 293 293 293 292 292 292 292 291 287 289 292 292 290 288 288 290 291 292 291 293 291 291 292 290 289 290 288 287 287 287 287 287 287 287 286 287 287 286 287 287 286 286 286 286 286 286 286 285 286 286 286 286 287 287 287 288 288
297 297 297 298 299 299 299 299 300 301 301 300 298 297 297 297 297 297 297 296 295 294 294 294 293 293 293 292 292 292 292 292 292 293 292 291 291 290 287 288 290 289 288 287 287 288 288 289 293 290 291 287 287 287 287 287 287 288 287 287 287 286 286 286 286 286 286 286 285 285 285 285 285 285 285 285 285 285 285 285 286 287 287 287 287
Wind_Speed
5 4 6 6 6 5 4 4 4 3 3 3 4 5 6 7 7 7 4 4 5 5 5 5 5 4 3 3 5 4 4 4 4 3 3 3 3 4 4 4 4 4 3 3 4 5 4 4 3 4 4 5 4 3 5 5 5 5 5 6 8 7 6 5 4 3 2 1 1 4 5 5 6 7 7 5 5 4 3 4 4 4 5 6 6
5 5 6 7 7 7 6 5 6 7 6 4 5 6 6 6 7 6 5 4 4 5 4 3 3 3 4 3 4 4 5 5 5 4 3 3 3 4 4 5 5 4 3 4 4 5 5 4 4 4 5 5 5 6 5 5 5 5 4 4 4 5 3 4 5 5 3 4 2 1 2 4 7 7 5 4 3 4 3 3 3 4 5 4 3
8 8 7 8 9 9 7 7 7 7 7 7 6 6 5 6 5 6 5 5 4 3 4 4 2 2 2 3 4 4 2 2 3 3 3 4 4 4 4 4 5 5 4 5 5 4 5 6 6 6 6 6 6 7 7 6 5 5 4 4 5 2 3 2 5 5 3 2 1 3 2 2 3 4 2 4 3 1 2 4 4 5 5 4 3
12 12 11 10 11 10 9 9 8 7 7 7 6 7 5 5 6 6 6 5 5 4 3 4 4 4 5 5 3 3 4 3 3 3 4 5 5 4 4 3 4 5 5 6 6 6 6 6 5 5 5 5 6 6 6 7 6 5 4 4 5 6 2 2 1 5 2 5 3 4 3 3 2 6 3 3 4 1 0 1 3 4 4 5 4
11 10 10 10 11 13 13 10 9 9 9 9 9 8 6 9 8 8 7 6 5 5 4 6 6 6 5 6 6 6 4 4 4 3 3 4 4 5 4 4 4 4 4 5 7 6 6 6 6 6 5 5 5 6 6 5 6 5 5 4 3 4 5 1 3 1 3 1 0 1 2 2 2 2 3 1 3 1 3 2 2 0 1 1 3
12 13 14 13 13 11 10 11 11 10 10 10 9 9 8 8 8 7 6 5 6 6 6 6 6 6 6 6 5 5 5 4 4 4 4 3 4 3 4 4 4 4 4 6 6 6 6 5 6 6 6 5 5 6 6 5 6 6 5 4 5 4 4 3 3 5 6 6 5 2 1 1 3 3 2 3 4 1 2 2 2 3 3 2 1
11 11 11 12 11 10 12 13 13 12 11 9 9 9 9 8 8 8 7 6 5 6 6 6 6 6 7 6 6 6 6 3 1 2 3 4 3 4 4 4 4 5 4 5 5 6 5 5 6 6 6 6 6 6 6 6 6 5 5 5 4 3 2 4 3 2 2 4 4 4 4 3 2 1 2 2 2 1 2 2 2 2 3 3 1
11 13 15 15 13 15 16 15 12 12 10 10 9 8 10 10 9 9 7 7 5 5 6 5 7 6 6 5 4 5 5 5 5 3 2 3 4 4 4 3 3 4 5 5 5 6 6 6 7 7 7 6 6 6 6 5 5 5 5 5 5 4 4 3 3 3 2 2 3 4 5 5 3 3 3 3 1 1 1 1 2 1 1 2 1
12 11 14 15 16 15 13 12 11 9 10 11 11 8 8 8 8 8 8 8 6 7 6 6 5 6 6 5 4 2 2 3 4 4 4 3 5 4 4 4 4 3 4 5 5 7 7 7 7 7 7 6 6 6 6 7 7 6 6 6 6 5 5 4 3 4 3 3 2 3 3 3 2 2 4 3 2 2 3 3 3 1 1 4 0
10 14 12 11 11 8 8 7 7 8 8 8 7 7 8 8 9 10 10 8 7 8 7 7 6 6 6 6 6 4 3 3 4 5 4 4 6 5 4 4 4 4 4 5 6 7 7 7 7 8 7 6 6 7 7 7 7 7 7 7 6 6 5 5 5 4 4 4 4 3 2 2 1 1 2 3 2 2 3 3 4 5 4 1 3
9 10 11 11 11 10 10 12 11 8 8 10 9 10 9 9 10 11 11 8 8 8 8 8 7 6 7 7 7 6 6 6 6 5 4 5 5 5 5 5 4 4 4 4 5 6 6 7 7 7 7 6 6 7 6 7 7 7 6 7 7 7 6 6 6 6 4 5 5 5 4 3 3 3 3 3 3 4 5 5 4 4 5 7 4
8 7 8 11 11 11 12 13 11 11 10 11 10 10 10 9 10 12 10 10 9 8 8 8 7 7 6 8 8 7 7 6 8 8 7 7 6 6 5 5 5 5 4 5 5 5 5 6 7 7 7 7 7 6 6 6 6 6 6 5 6 6 5 5 5 6 6 5 5 4 4 3 3 2 3 3 4 4 5 6 6 5 6 5 3
6 4 5 8 10 11 13 13 11 12 13 14 12 10 9 10 12 13 13 11 10 9 9 9 8 8 8 8 7 6 7 7 8 7 7 6 6 6 6 6 6 6 6 6 6 7 6 6 6 6 6 6 7 7 7 7 7 6 6 6 6 6 5 5 5 6 6 5 4 4 4 3 3 3 3 3 3 4 5 7 6 6 7 7 6
7 3 3 6 7 8 9 9 9 8 9 10 10 8 8 8 10 12 12 11 9 8 9 9 9 8 8 7 7 6 6 6 6 6 7 6 6 7 7 7 7 7 7 7 7 7 6 6 6 6 7 7 7 7 7 6 6 6 6 6 6 5 5 6 6 6 6 5 4 4 4 4 4 4 4 3 3 4 4 6 7 7 7 8 7
5 3 0 3 4 6 6 7 7 7 8 9 9 9 8 8 9 10 9 10 10 10 8 9 8 8 7 7 6 5 6 5 5 5 6 6 5 6 6 5 6 6 7 6 6 6 6 6 7 7 7 7 7 7 6 6 6 6 6 6 5 4 5 5 6 6 6 6 6 4 3 3 4 4 4 4 3 4 5 5 6 8 7 6 7
7 5 3 3 4 6 6 6 6 7 8 7 8 7 8 9 9 10 10 9 10 10 9 9 8 6 7 7 7 6 5 4 3 3 3 4 6 6 6 6 5 5 4 5 6 6 7 7 7 7 7 6 6 7 6 6 6 6 5 5 5 3 4 5 5 5 6 6 5 4 3 3 3 3 3 3 4 4 4 4 4 5 7 8 6
9 7 6 5 3 4 5 7 7 6 7 8 8 8 8 7 7 9 10 9 10 10 8 7 6 6 7 7 7 6 6 7 6 6 6 5 5 5 5 5 4 3 4 4 6 6 7 7 7 7 6 5 6 6 6 6 5 5 5 5 5 4 4 5 4 4 5 4 4 5 3 3 3 3 2 3 3 3 3 3 3 4 5 7 8
10 9 7 7 5 2 4 5 6 7 7 7 8 7 7 8 9 9 9 10 8 7 8 7 7 7 7 7 7 8 7 7 6 6 6 5 5 5 4 3 5 5 4 4 5 7 6 7 7 6 6 5 5 5 5 5 5 4 5 4 3 3 4 3 3 4 4 3 3 4 4 3 4 3 3 3 3 3 3 3 3 4 4 6 7
10 11 10 9 7 4 3 4 3 5 6 7 7 8 8 8 8 8 8 7 6 5 6 5 7 5 5 7 8 7 7 7 6 6 6 7 7 7 7 6 5 5 5 5 6 6 7 7 7 7 6 6 5 5 5 4 4 4 3 3 2 2 2 3 3 3 3 3 3 4 3 3 4 4 4 3 3 3 3 3 3 3 4 5 7
10 10 11 11 11 10 7 5 5 3 1 5 7 7 8 7 7 7 6 5 6 7 7 8 7 7 6 7 8 8 8 8 7 7 7 8 8 7 7 6 6 6 6 7 7 8 8 8 7 7 6 6 6 5 4 5 4 3 3 2 2 2 2 2 3 2 2 2 3 3 4 4 4 4 4 4 4 4 4 4 4 4 5 5 6
9 9 9 11 11 11 11 9 9 7 4 3 1 2 4 5 7 8 9 9 10 10 9 8 7 8 8 9 8 8 9 8 8 8 8 8 7 7 7 6 6 6 6 7 8 8 9 8 9 8 8 7 6 5 4 5 4 4 3 3 3 2 1 2 1 2 2 2 3 3 4 4 4 5 5 5 4 4 4 4 4 5 6 6 7
8 8 8 9 11 11 12 12 11 10 8 7 5 2 1 2 3 4 6 7 8 8 8 9 8 7 9 10 10 9 8 8 9 9 9 9 8 7 7 6 7 7 7 8 9 8 8 9 9 9 8 8 7 7 6 5 5 5 4 3 3 2 2 2 1 1 2 1 2 3 4 4 4 5 5 6 6 6 6 5 5 4 5 5 5
6 6 7 8 9 9 10 11 11 11 10 10 9 8 5 3 2 1 3 6 6 7 8 7 6 7 11 11 10 9 9 10 10 9 10 10 9 8 7 8 8 7 7 8 9 9 9 9 9 9 9 8 8 7 6 5 5 4 4 3 3 2 2 2 1 1 2 2 2 3 4 5 4 5 5 6 6 6 6 7 7 6 6 6 6
6 4 5 6 6 7 8 9 9 9 9 9 7 7 8 8 8 6 3 5 5 6 6 5 6 8 10 9 10 9 9 9 10 10 11 11 9 8 8 9 9 8 9 8 9 10 9 10 10 9 9 8 8 7 6 5 5 4 3 3 3 2 2 1 1 1 2 2 3 4 4 5 5 7 7 6 6 5 6 6 7 7 7 8 7
7 8 7 8 9 10 9 8 8 8 7 7 8 8 8 8 9 8 6 5 5 4 5 6 7 9 9 9 9 8 9 10 11 9 10 9 7 7 7 10 9 10 10 9 8 9 9 10 9 10 9 8 8 7 6 6 5 4 4 4 3 2 1 1 1 1 2 3 4 5 5 6 6 7 7 7 6 7 7 7 7 7 7 7 7
6 7 8 9 7 7 8 8 8 8 7 8 7 7 7 6 6 5 6 6 6 4 4 5 6 7 8 9 8 8 9 10 11 10 9 8 7 8 8 7 7 9 10 10 11 9 10 11 10 10 9 8 7 7 6 5 5 5 5 4 3 1 1 1 1 2 3 4 4 5 6 6 7 7 7 7 7 8 7 7 8 8 7 7 8
5 5 4 5 7 9 9 9 8 8 8 7 7 8 8 7 7 7 7 6 7 7 6 5 6 7 7 7 6 7 9 10 10 9 8 7 7 7 7 6 7 4 2 4 5 9 10 11 10 9 8 8 7 6 6 6 6 5 4 3 2 1 1 1 3 4 4 5 6 6 6 7 7 7 8 8 8 8 7 8 8 8 8 8 8
3 4 5 5 5 6 7 7 8 8 8 8 8 8 8 7 7 7 6 5 5 6 6 6 5 6 8 9 8 7 9 10 9 8 8 8 8 7 8 8 9 11 11 12 14 13 9 9 9 9 7 6 7 7 7 6 5 4 3 3 2 1 2 3 3 4 5 6 6 7 7 7 8 8 8 8 8 8 7 9 8 8 8 8 8
4 3 3 4 5 5 6 7 7 7 8 7 7 7 7 7 7 8 7 6 5 4 4 4 4 4 6 7 8 8 9 9 9 9 9 8 8 7 8 9 8 9 9 12 12 12 10 9 9 10 9 8 8 7 6 6 6 5 3 2 1 1 2 3 4 5 5 6 7 7 8 8 8 9 10 10 10 9 9 10 9 9 9 10 10
3 2 2 2 3 4 5 6 7 8 9 9 8 7 7 7 7 7 7 7 7 6 6 5 5 4 5 6 7 7 8 10 9 9 9 7 7 7 8 9 9 10 10 10 9 8 9 9 9 9 10 9 8 6 9 11 7 4 3 2 1 1 2 4 5 6 6 7 7 8 8 10 10 11 12 12 12 12 13 12 11 10 10 10 10
2 1 2 1 1 2 4 5 7 8 8 8 7 7 7 7 7 7 6 6 6 6 6 6 6 6 6 6 5 6 7 8 9 9 7 6 7 7 8 9 10 11 10 10 9 9 6 5 7 9 10 8 7 7 13 12 10 6 3 3 2 2 3 4 5 6 7 8 7 8 8 9 10 11 12 13 13 14 14 14 15 16 15 13 12
3 3 2 1 1 1 2 3 4 5 6 7 8 8 7 7 7 7 7 6 5 5 6 6 7 7 7 7 6 6 6 7 8 10 8 7 6 7 8 9 8 9 8 8 8 8 8 8 7 9 9 8 9 11 13 12 10 7 3 2 1 2 3 4 5 6 7 7 8 8 7 7 7 9 10 10 11 13 15 16 16 15 15 17 17
3 4 4 3 3 3 3 3 3 4 5 7 7 8 8 8 8 8 7 7 6 5 5 6 6 7 7 7 7 7 7 7 7 8 7 6 7 8 8 8 10 9 8 9 8 8 9 9 10 10 9 9 9 11 12 11 9 8 5 1 2 2 3 5 6 7 7 8 8 8 8 7 7 10 10 10 10 10 10 11 13 14 16 17 17
2 3 4 4 4 4 4 4 5 6 6 6 6 6 7 7 8 8 7 7 7 7 6 6 7 7 7 7 8 8 8 8 7 8 8 7 8 9 9 7 7 7 7 7 8 8 8 8 9 9 8 8 9 10 11 10 8 7 5 1 2 2 3 5 6 7 7 8 8 8 8 8 8 9 9 10 10 10 10 11 11 11 12 13 16
5 6 7 6 5 5 5 5 6 7 7 7 7 5 5 7 6 7 8 8 8 7 7 7 7 8 8 8 8 8 8 8 7 8 9 9 9 7 7 7 8 9 9 9 10 10 7 8 8 8 8 7 6 9 9 8 7 6 4 3 2 2 3 5 5 6 7 8 9 8 9 9 9 9 8 9 10 11 12 12 13 13 13 14 14
6 5 6 7 7 7 7 7 6 7 7 7 8 6 6 7 6 7 8 7 8 8 8 8 8 8 8 9 9 9 9 8 8 9 10 10 8 8 9 7 7 6 5 7 7 8 9 9 8 8 8 8 6 7 7 7 6 5 3 1 3 3 4 5 6 7 8 8 8 9 9 9 10 10 10 9 9 12 14 14 14 14 14 14 14
5 5 6 6 6 6 7 7 7 7 8 9 8 7 7 7 7 8 8 8 7 8 9 9 9 9 9 9 9 10 10 9 8 9 10 10 8 7 6 7 8 8 9 8 8 8 8 9 8 8 9 8 6 6 7 6 4 3 2 3 4 5 5 6 7 8 8 8 8 9 10 10 11 11 11 9 9 10 13 14 15 15 14 14 14
6 6 6 6 6 5 6 6 9 9 9 9 8 7 7 7 8 8 8 8 8 10 10 10 10 10 10 9 9 10 10 10 8 10 11 9 6 5 6 6 8 9 9 9 8 7 7 7 8 7 6 7 6 7 6 5 4 3 2 3 5 6 7 8 8 8 8 8 9 12 13 12 12 12 11 7 7 9 14 15 15 16 17 16 15
6 7 8 8 7 7 8 8 9 10 11 9 9 9 8 8 9 9 9 9 10 11 11 11 11 10 10 10 10 10 10 10 9 11 9 6 7 7 6 6 6 6 8 8 9 7 6 5 4 5 6 6 5 6 5 5 4 4 3 4 5 7 8 9 9 9 8 9 10 11 13 12 13 13 13 13 12 13 16 15 16 16 17 17 15
8 7 7 7 7 7 8 9 10 11 11 10 9 8 8 9 9 8 9 10 11 12 12 11 11 10 10 10 10 11 11 9 11 7 6 8 9 9 9 9 9 7 7 7 6 7 7 4 3 4 3 3 4 4 6 6 5 5 4 4 6 7 9 10 10 9 11 11 12 13 12 11 10 10 11 12 13 13 15 16 15 16 17 18 14
9 9 8 7 7 7 9 11 11 11 10 9 8 8 9 9 9 9 11 12 12 12 12 11 11 11 11 11 11 10 10 10 7 8 8 9 9 10 11 13 13 10 9 7 7 8 7 4 2 2 1 1 1 2 3 5 5 6 5 4 6 7 9 10 10 11 13 13 13 12 12 13 11 10 11 12 13 14 15 15 16 15 16 16 16
8 9 8 8 8 8 10 11 11 10 10 9 8 9 10 10 10 11 12 12 12 12 11 11 12 12 12 11 11 9 9 5 8 9 10 8 7 8 9 10 9 9 11 9 7 7 7 5 2 2 1 2 2 3 4 4 6 7 8 7 6 7 7 9 10 12 14 13 13 12 12 13 13 13 13 14 16 16 18 17 18 21 21 19 18
9 9 9 8 8 9 9 10 10 9 8 9 9 11 11 10 11 13 12 11 11 11 11 12 12 12 11 11 9 7 6 6 8 9 11 10 7 8 9 10 11 10 9 8 7 6 5 4 2 1 2 2 3 3 5 7 8 7 8 8 9 9 9 9 11 15 14 13 12 13 13 12 12 14 18 20 21 22 21 19 22 21 21 21 20
9 10 11 9 9 9 9 9 9 8 8 8 9 10 10 11 14 12 10 11 11 11 11 11 11 10 9 6 6 8 9 9 11 10 10 10 10 10 10 7 7 8 7 6 5 4 3 3 2 1 1 0 0 1 2 6 7 8 8 9 10 10 10 9 11 13 13 13 13 13 14 17 20 21 22 21 20 20 19 22 21 22 22 21 17
10 10 9 8 9 10 9 9 9 9 8 8 8 10 12 14 12 9 10 11 11 11 11 11 9 7 5 6 7 8 9 9 7 9 9 9 11 9 9 8 7 8 7 6 4 3 3 2 2 1 2 3 3 2 3 2 6 8 9 9 10 11 11 11 11 12 13 13 14 17 19 19 19 20 21 21 20 20 20 20 20 20 20 15 14
10 10 10 9 8 8 9 9 10 9 8 7 8 9 12 13 11 9 10 11 11 11 9 8 5 6 8 9 10 9 9 10 12 10 9 7 9 8 7 7 7 6 6 6 4 3 3 2 2 2 2 2 2 3 4 5 5 5 7 7 9 10 9 8 11 12 13 15 15 15 17 18 17 17 15 13 13 14 16 18 19 20 16 14 13
11 11 8 8 7 7 8 8 9 10 8 7 9 8 8 8 9 10 9 9 6 2 4 5 7 7 8 9 12 10 9 9 10 8 7 6 6 6 9 9 7 8 7 6 5 4 3 3 2 2 2 2 3 3 4 5 6 6 7 8 8 10 11 11 11 11 12 13 15 15 14 16 16 18 18 17 16 15 14 13 11 11 11 12 12
10 10 8 8 8 9 9 9 10 9 7 9 8 6 5 4 5 4 3 1 4 5 8 9 9 8 7 7 8 10 11 8 7 9 9 8 7 7 8 5 5 5 5 4 3 4 3 2 3 2 2 2 3 3 5 7 7 7 8 8 9 10 11 10 11 11 13 14 14 13 13 11 11 11 11 10 11 11 11 11 11 11 12 12 14
11 10 8 8 8 9 9 9 10 9 7 8 6 3 0 1 1 1 1 4 6 8 10 11 9 9 8 7 6 6 6 7 7 6 4 5 7 7 6 3 3 1 3 4 4 5 3 2 2 2 1 2 3 5 6 6 6 7 7 9 10 10 10 10 11 14 14 12 11 11 10 11 10 11 11 11 11 11 11 11 13 12 12 12 12
10 9 9 9 9 9 9 10 10 8 7 7 4 3 3 3 4 5 4 6 7 10 10 10 9 9 8 8 7 6 5 6 6 6 7 6 9 8 6 6 3 3 7 8 6 4 3 3 3 3 2 2 3 4 6 8 8 9 9 9 9 11 12 11 14 16 12 10 9 10 10 11 11 11 12 12 12 12 12 12 12 13 13 12 11
10 9 10 9 9 9 9 10 10 7 7 4 6 5 4 4 5 6 6 7 8 10 10 9 9 8 7 7 6 6 4 5 5 6 6 8 6 7 11 9 10 9 8 8 9 9 7 4 4 3 4 3 1 3 5 8 9 9 10 10 10 11 12 12 13 11 9 8 10 10 11 11 11 12 12 12 13 13 13 13 13 12 12 12 12
Wind_Direction
184 179 181 186 176 174 168 167 175 188 202 191 164 152 153 151 149 148 146 146 140 139 141 140 132 117 104 109 111 113 110 114 110 109 100 88 76 81 79 80 81 85 85 102 106 111 105 101 106 91 85 97 117 149 156 149 134 139 176 197 205 206 206 199 201 203 201 294 305 286 288 286 302 294 277 252 237 245 234 218 216 215 219 216 219
192 185 182 174 179 177 168 173 173 187 199 193 187 168 164 153 156 140 145 161 153 152 145 140 143 144 145 138 124 123 132 136 130 120 100 92 82 76 78 80 81 80 78 85 96 109 112 103 88 94 99 85 83 94 102 113 133 148 158 139 175 193 170 176 165 147 206 204 163 311 332 320 309 312 283 255 245 236 238 243 247 245 242 237 221
201 205 182 184 178 180 180 179 187 196 181 190 185 170 169 163 152 145 158 164 166 156 151 141 123 94 110 128 125 110 47 38 95 95 102 99 71 69 69 73 81 78 75 77 82 89 99 99 94 90 86 94 92 88 96 103 119 138 155 153 158 143 119 144 173 197 190 176 207 112 226 136 209 283 333 326 335 275 250 248 242 241 242 239 228
205 201 195 186 183 182 186 186 186 183 180 191 186 184 170 172 159 161 165 171 161 170 132 94 93 92 73 91 70 84 121 118 104 107 106 105 91 75 72 66 74 80 80 88 83 75 81 89 94 88 81 76 84 82 77 78 79 88 114 130 147 146 126 107 251 207 205 161 193 224 149 141 118 238 209 279 303 44 221 213 226 247 240 229 230
211 202 200 190 188 193 191 183 176 186 187 186 181 184 180 179 170 169 168 171 167 156 140 126 118 105 100 91 95 94 103 124 131 124 111 106 107 87 73 63 75 83 79 79 88 84 81 86 88 84 80 74 77 77 68 56 56 60 68 87 93 119 122 89 21 15 202 263 321 130 125 187 186 125 132 281 281 254 67 109 93 212 223 228 231
215 211 207 200 199 189 177 178 188 191 192 187 178 185 182 174 171 169 163 167 166 157 150 146 146 141 145 142 145 144 146 162 164 153 147 134 99 95 88 71 84 83 82 87 89 92 85 86 91 93 88 79 76 79 76 69 57 54 37 42 69 57 101 115 83 47 40 34 6 20 358 77 151 147 194 184 204 172 148 40 60 85 71 81 60
223 221 211 207 207 195 190 188 193 192 194 169 178 189 186 176 172 164 168 171 170 160 162 153 150 161 167 169 164 165 160 170 128 124 139 119 114 106 95 84 85 95 86 91 92 92 92 88 88 88 86 81 79 81 75 69 64 53 47 54 55 53 46 104 107 62 83 54 31 30 30 33 15 218 190 138 212 155 209 158 108 51 16 5 356
222 217 214 209 200 198 194 193 190 195 171 168 183 185 185 180 173 170 172 171 173 164 172 170 162 167 164 168 169 177 169 159 166 150 119 130 136 125 119 110 99 98 106 101 102 101 98 94 93 92 88 84 83 81 82 80 79 70 61 63 61 56 50 64 69 45 36 58 20 30 27 15 21 8 5 328 358 318 169 142 162 13 38 32 54
241 231 217 210 204 202 197 190 191 169 166 181 185 180 175 178 176 168 173 173 170 177 172 178 172 167 169 167 179 174 128 136 151 151 152 149 146 133 131 117 110 104 107 113 110 113 110 109 103 99 94 89 86 87 85 82 79 77 71 65 63 62 59 56 58 49 33 39 11 41 22 23 22 44 32 25 335 248 271 314 331 350 101 135 194
259 249 238 220 210 199 193 181 168 182 175 172 169 166 178 177 179 176 182 181 169 178 179 173 176 166 171 177 183 169 155 142 161 160 162 165 160 151 140 134 130 122 115 117 119 120 121 119 114 109 106 100 91 93 94 89 83 81 74 71 68 68 61 54 54 53 47 41 30 21 22 4 342 3 25 8 334 343 303 314 344 354 333 275 306
275 264 240 217 197 189 177 188 190 168 166 175 177 180 178 181 180 185 186 180 173 179 180 178 179 179 180 180 185 173 165 160 159 164 165 172 172 162 157 142 140 132 129 122 122 128 125 122 118 115 110 110 108 103 94 93 90 88 85 78 69 67 67 64 63 53 52 48 39 32 30 22 353 324 322 320 315 293 290 278 286 271 286 301 290
283 265 237 199 173 174 173 184 176 174 171 182 183 180 183 182 180 184 185 186 180 178 181 180 181 188 191 183 185 183 168 173 175 171 176 179 179 170 156 149 149 142 144 140 140 136 128 120 119 118 114 113 109 106 105 100 97 91 86 83 83 76 73 73 66 62 55 61 50 39 41 29 27 348 347 323 308 301 295 293 291 299 281 256 272
322 298 221 191 176 169 179 180 167 171 184 185 183 182 182 182 183 185 190 187 184 180 184 180 184 189 190 190 193 179 182 186 182 174 175 179 179 175 169 170 159 162 165 159 156 154 140 137 138 128 123 121 121 115 110 106 101 96 91 88 82 77 74 73 75 68 61 54 56 48 36 32 34 21 347 326 311 303 290 289 290 299 292 294 288
341 315 221 189 177 172 174 168 175 176 179 180 181 181 184 186 188 194 191 182 180 182 187 184 193 195 192 193 190 182 190 193 193 182 177 184 178 182 184 181 175 176 170 172 166 164 159 148 139 127 126 130 129 126 122 116 111 104 101 94 91 89 88 86 84 82 76 69 57 58 44 40 28 19 10 347 337 314 300 295 299 294 290 289 292
358 10 82 155 147 156 162 165 168 172 177 181 181 184 185 192 195 199 191 185 187 190 188 194 195 194 195 199 194 192 194 194 201 194 175 178 184 187 192 185 186 181 177 166 160 168 157 148 139 134 135 135 137 133 128 120 112 106 101 102 98 98 95 90 84 80 73 67 60 49 51 50 30 21 7 0 353 344 324 321 315 302 296 287 290
20 21 46 99 126 148 147 156 167 171 177 179 187 188 192 195 192 198 200 192 193 194 198 197 198 189 189 194 201 201 204 200 199 190 195 192 181 190 191 191 196 184 167 154 163 162 156 148 141 136 137 138 137 133 130 122 118 110 105 101 98 98 99 92 89 85 75 70 69 61 55 50 39 29 11 15 357 350 331 325 316 305 303 302 306
17 29 24 33 95 126 147 160 168 166 172 182 186 190 197 195 196 202 205 203 196 201 203 199 201 195 196 194 194 199 206 206 203 196 195 196 197 198 191 198 182 179 169 167 155 161 156 150 143 139 139 138 136 131 124 120 119 113 108 110 105 106 103 92 81 75 68 59 57 53 45 50 43 20 16 11 2 349 334 313 308 302 306 293 298
28 34 46 51 35 84 140 160 164 167 171 176 186 187 192 196 202 203 205 211 206 197 203 202 204 209 204 200 200 202 205 208 207 199 191 191 199 198 198 188 196 187 176 169 160 155 151 149 144 143 140 140 134 129 121 117 115 105 101 97 95 107 113 107 92 81 72 62 54 48 31 34 28 4 10 354 345 342 328 327 307 294 282 282 289
27 30 33 35 40 43 86 115 137 155 166 179 183 189 199 201 198 203 211 211 208 198 204 206 209 212 209 206 204 204 210 214 210 203 190 199 199 196 194 197 183 175 176 168 167 158 156 155 149 145 146 143 137 130 127 119 115 110 106 102 103 103 100 107 98 85 76 60 55 50 36 35 21 5 347 347 335 317 315 300 295 292 284 276 281
22 32 37 39 40 40 38 71 90 74 187 196 190 192 206 199 193 201 202 198 202 210 204 212 210 214 216 212 213 210 209 210 209 201 203 209 207 198 196 191 191 182 184 174 174 167 161 156 156 150 149 148 143 135 132 124 123 119 117 111 109 113 98 93 101 89 83 71 53 36 29 14 8 344 342 337 319 313 307 295 284 280 271 270 271
22 23 34 44 47 47 49 51 59 61 44 9 351 225 227 198 199 201 204 208 212 212 205 208 197 210 215 222 219 212 213 210 209 208 213 214 210 202 200 196 177 190 179 177 177 171 167 162 157 157 158 157 149 145 143 142 143 138 130 119 128 127 111 97 86 105 95 57 33 8 2 3 359 339 336 322 310 304 292 280 276 277 272 268 270
31 23 27 38 38 41 44 47 47 53 50 45 30 25 339 248 230 199 213 226 230 224 219 218 209 205 207 217 219 218 216 212 212 211 214 214 209 206 196 182 193 189 182 182 182 171 168 164 163 164 164 159 156 152 154 159 158 151 145 142 149 152 140 126 126 67 65 55 17 349 343 346 341 329 324 317 321 308 293 285 276 275 279 277 273
39 33 34 45 49 47 48 47 48 45 41 39 40 36 22 332 260 199 243 249 245 246 243 232 213 207 218 220 216 215 212 210 211 216 218 218 210 202 189 190 193 182 184 185 181 173 171 170 169 168 164 160 160 156 160 165 162 164 154 151 156 157 151 145 133 63 358 13 335 338 333 337 329 322 318 311 306 296 294 285 281 275 273 274 272
39 44 48 49 58 58 52 47 44 41 39 38 38 39 41 37 30 25 314 278 268 265 273 267 244 231 231 230 223 225 217 217 221 221 217 216 212 203 190 196 194 180 180 184 178 176 172 173 172 170 168 163 162 158 162 168 165 161 157 148 146 139 129 102 31 349 345 332 332 322 324 323 320 314 312 309 301 297 294 291 284 277 269 266 264
35 35 30 37 43 44 45 45 45 40 41 39 39 38 39 36 35 36 25 359 320 279 250 244 239 240 243 246 240 233 229 226 228 233 231 224 215 212 200 203 190 184 182 172 175 176 176 177 173 173 171 168 165 163 162 160 149 141 133 131 135 124 107 47 351 335 319 315 314 310 310 312 307 303 301 299 303 299 294 290 284 283 277 272 267
41 31 33 34 33 37 39 37 36 38 35 32 28 33 35 34 37 29 22 19 18 356 300 268 249 244 249 251 256 250 238 236 236 236 234 227 213 212 207 208 205 194 179 176 174 176 177 179 178 176 172 166 162 164 163 147 132 128 124 121 115 109 78 348 326 309 309 305 298 300 301 299 298 293 294 294 292 291 291 285 284 282 284 282 276
49 44 39 36 34 29 28 27 25 26 24 24 21 19 17 14 16 22 20 18 12 6 1 328 290 273 265 260 250 260 265 251 240 236 233 227 222 213 204 167 99 88 165 196 206 179 179 179 174 166 166 162 154 142 127 127 130 126 118 110 99 62 352 336 314 307 302 297 293 292 289 288 284 284 285 288 289 287 282 280 278 280 276 277 274
53 50 42 42 37 30 25 18 16 15 14 16 14 11 6 3 0 6 9 12 10 2 0 350 330 299 281 270 258 237 239 249 245 237 232 225 217 200 186 173 177 189 178 177 179 189 179 168 158 161 151 140 133 131 129 125 121 116 109 102 78 4 317 301 293 291 290 287 285 282 279 279 277 277 279 282 283 281 282 280 277 274 274 274 276
59 36 20 19 26 18 16 11 8 6 8 6 6 2 358 355 356 355 354 360 356 354 352 345 332 308 295 291 286 276 262 248 239 239 233 224 213 198 186 187 187 184 181 183 192 175 157 155 152 153 148 142 138 131 131 132 126 113 105 95 62 5 320 304 297 291 282 278 277 274 270 268 272 276 276 271 271 276 278 278 275 274 274 273 272
70 42 14 5 2 5 5 359 2 2 359 357 355 352 351 347 347 347 344 349 347 345 339 333 319 307 300 300 295 285 275 265 252 237 234 222 208 196 192 189 187 187 187 184 174 173 160 158 154 146 139 134 127 116 103 91 84 101 106 87 72 6 338 319 309 303 292 283 278 275 271 266 261 259 256 255 252 251 252 260 271 275 273 270 268
46 39 31 16 351 352 351 355 356 352 349 342 340 338 338 339 343 337 336 338 336 329 326 321 317 315 311 304 296 287 276 266 260 255 236 213 204 195 195 196 194 190 186 179 174 163 157 136 127 131 127 118 114 117 122 118 114 101 96 95 44 2 335 316 305 301 297 294 287 285 285 278 264 255 251 240 241 246 248 249 252 257 263 267 270
2 351 347 16 12 358 348 344 338 335 333 335 334 334 331 333 333 330 330 325 318 311 311 310 309 312 312 308 303 292 274 263 257 256 240 213 198 193 194 198 190 183 180 168 164 158 146 139 125 122 121 121 118 127 124 122 120 118 86 78 70 6 325 310 305 300 297 295 294 292 287 284 276 275 282 280 262 242 237 241 244 246 249 250 250
335 339 345 349 348 345 328 322 322 335 330 331 328 321 326 327 323 322 318 314 310 303 299 297 298 302 302 302 299 292 282 268 255 252 241 197 198 198 197 192 192 179 153 159 150 139 137 136 134 130 123 121 118 128 123 124 121 120 125 210 59 7 323 319 308 300 297 296 295 293 290 284 284 277 272 270 273 274 258 242 237 239 243 244 249
317 330 335 336 334 331 331 323 316 320 322 314 303 298 303 308 307 311 308 306 307 306 303 301 297 292 290 289 291 288 284 276 264 256 244 216 202 202 198 188 168 152 149 129 127 126 125 128 124 122 120 116 120 132 126 125 118 120 121 200 56 353 319 307 304 302 296 295 291 290 290 287 286 286 283 280 280 279 282 281 273 269 271 257 235
353 352 341 334 323 314 313 316 328 327 314 308 301 293 296 298 303 305 303 302 302 301 297 293 290 290 290 289 287 287 283 280 268 257 242 230 206 197 184 172 165 161 153 149 141 133 124 118 116 114 117 117 116 131 120 122 120 121 134 223 44 336 320 314 304 299 295 290 288 284 282 283 285 285 282 290 293 291 289 286 282 277 274 271 270
342 330 318 313 317 316 311 312 315 310 310 304 299 300 296 294 299 291 290 286 289 291 288 284 281 281 285 290 291 289 281 273 266 257 241 230 206 189 178 156 141 131 120 113 111 118 126 124 125 122 119 121 135 139 131 130 133 122 197 290 7 337 322 314 307 304 299 291 285 283 283 282 282 283 284 281 278 288 290 288 284 281 278 275 273
306 301 300 305 299 297 300 303 303 305 306 302 302 299 291 290 288 285 282 280 278 276 277 277 278 281 280 279 282 284 284 278 262 255 239 225 197 175 151 146 141 142 143 137 130 127 122 123 126 126 129 138 142 158 156 151 139 155 238 358 342 327 319 311 306 304 299 295 287 287 290 291 288 286 291 291 281 269 289 286 285 283 280 279 276
299 302 296 293 290 287 291 293 301 298 291 292 295 292 289 282 280 280 281 278 272 270 270 271 272 275 275 276 273 274 274 271 255 250 236 219 178 127 140 155 151 145 136 130 118 112 120 125 126 129 137 139 142 146 163 162 187 176 279 335 329 319 314 311 313 310 303 295 288 289 288 287 286 284 289 290 293 289 287 286 285 284 281 279 277
294 295 298 296 294 296 298 294 287 289 293 297 296 294 287 281 279 279 279 281 276 275 273 272 270 268 269 267 268 267 263 259 249 239 221 160 116 115 93 78 75 90 109 111 116 113 102 87 96 114 125 134 139 150 170 192 213 226 245 317 318 322 317 316 315 310 306 299 299 295 290 283 280 281 286 282 276 277 287 285 285 283 280 277 276
298 289 277 282 285 289 285 287 290 290 296 299 296 290 282 279 279 280 280 276 274 276 279 278 275 273 269 266 261 259 253 248 243 203 132 122 119 112 107 97 89 90 102 101 100 107 108 100 93 123 134 141 151 167 173 199 220 243 242 299 316 315 316 315 311 310 308 306 304 304 296 277 262 268 273 273 271 267 278 284 282 279 278 277 279
291 288 295 285 281 277 282 286 288 290 295 293 292 288 282 277 275 278 276 272 274 281 283 283 281 279 274 269 264 253 244 236 200 136 132 129 131 127 124 122 123 119 112 98 100 101 96 97 92 75 97 139 202 229 194 192 235 250 263 260 297 302 307 309 309 305 308 307 306 302 301 300 296 290 287 282 276 272 271 278 278 275 272 279 287
264 268 270 270 269 271 274 278 278 286 292 295 294 289 283 280 276 274 272 273 281 284 284 283 281 280 276 267 256 243 231 170 123 129 128 124 122 123 117 115 119 121 120 123 125 122 117 117 113 122 145 232 220 228 279 219 234 255 263 258 277 298 307 306 300 303 306 302 298 298 295 299 301 296 293 289 284 281 277 277 275 272 273 273 273
286 282 264 252 262 265 269 274 281 284 289 290 290 286 282 279 278 278 282 287 289 286 284 282 280 277 273 261 240 184 132 124 126 125 120 117 116 111 117 121 125 125 125 127 125 115 119 122 124 164 181 222 236 235 230 263 268 271 274 277 271 280 290 283 296 303 302 297 295 294 293 293 298 296 291 286 282 277 275 272 270 268 267 265 266
255 256 266 261 259 261 270 276 279 281 285 287 282 280 278 278 279 284 291 291 287 286 284 282 279 273 255 219 163 141 128 122 127 124 117 115 116 117 118 110 119 123 121 111 95 94 102 126 135 115 143 142 132 291 231 225 273 283 279 275 277 276 272 283 295 298 297 297 295 294 300 304 293 284 278 276 274 271 273 272 270 268 267 266 268
278 273 268 260 261 269 273 277 280 284 282 281 276 272 275 276 281 294 291 290 289 288 286 281 268 239 181 133 121 119 121 112 114 120 115 118 122 126 121 120 107 104 104 102 105 112 114 103 118 70 26 17 11 336 320 235 229 263 270 270 270 272 274 270 291 301 300 298 298 292 285 280 280 280 278 276 275 269 263 259 260 259 262 267 263
275 271 259 253 258 260 266 275 285 287 284 282 276 272 270 279 292 289 288 288 289 287 280 259 214 141 119 119 112 108 104 109 111 108 116 126 133 125 112 115 111 112 112 109 120 127 129 113 72 52 39 18 354 339 334 330 309 281 279 268 263 263 272 284 283 290 287 283 281 284 285 282 281 282 287 293 296 291 289 283 276 272 273 266 261
277 275 278 274 268 276 281 287 291 295 294 294 291 280 275 285 289 291 293 290 276 199 107 87 98 104 112 118 119 118 113 110 115 120 121 111 91 93 111 110 119 130 129 130 133 135 123 113 118 77 56 28 12 353 338 334 333 328 324 323 323 329 327 315 315 315 313 311 309 304 300 296 284 280 272 268 269 272 275 278 281 279 274 268 263
277 280 274 272 271 277 287 292 293 293 298 304 291 273 280 289 288 286 285 154 111 107 112 107 95 90 93 99 106 113 115 114 113 120 122 126 127 129 129 131 137 134 131 126 122 109 107 109 101 75 59 38 8 359 356 347 339 339 335 334 335 332 329 328 319 319 318 312 308 304 299 302 306 305 303 307 304 302 296 292 288 286 281 274 267
282 278 267 269 278 283 284 289 287 290 299 303 273 251 261 342 338 65 67 102 103 105 105 104 101 96 88 81 88 95 96 111 113 102 90 105 131 135 118 102 57 68 114 122 117 113 120 113 105 95 79 51 18 6 2 350 333 333 337 339 337 334 331 325 326 322 316 315 313 312 314 312 313 312 311 308 307 305 301 295 291 288 288 285 284
273 272 271 271 271 274 282 287 286 288 297 288 213 138 95 64 67 65 69 93 98 99 94 91 96 100 104 100 92 84 90 108 116 119 110 77 31 53 103 123 115 84 82 101 102 113 129 139 131 118 97 62 33 4 338 333 336 331 328 323 318 312 310 313 315 310 313 317 319 319 319 317 315 315 313 310 308 308 305 302 297 292 289 285 280
277 275 273 272 277 280 281 281 280 285 295 242 163 144 121 92 72 69 67 76 95 94 94 95 94 95 95 99 100 98 85 102 109 111 109 109 106 56 38 76 123 142 141 117 97 118 132 155 150 132 147 186 305 321 331 337 333 330 325 321 320 318 314 310 311 324 328 326 326 324 322 319 317 314 312 310 309 308 306 303 301 299 295 287 282